Home   Weather   Toronto   Past weeks
Flag for Canada

Past Weather in Toronto, Ontario, Canada — Yesterday and Last 2 Weeks

Now
27 °F

Sunny.


Feels Like: 16 °F
Forecast: 39 / 26 °F
Wind: 12 mph from North

Location: Toronto Pearson International Airport

Current Time: Mar 26, 2019 at 8:58:36 am

Latest Report: Mar 26, 2019 at 8:00 am


Visibility: 15 mi

Pressure: 30.42 "Hg

Humidity: 54%

Dew Point: 12 °F

Location of TorontoLocation

Past Weather in Toronto — Graph

°F

Toronto Temperature Yesterday

Maximum temperature yesterday: 37 °F (at 3:00 pm)
Minimum temperature yesterday: 25 °F (at 5:00 am)
Average temperature yesterday: 31 °F

High & Low Weather Summary for the Past Weeks

 TemperatureHumidityPressure
High50 °F (Mar 15, 3:00 am)93% (Mar 14, 9:00 pm)30.42 "Hg (Mar 14, 9:00 pm)
Low19 °F (Mar 23, 7:00 am)18% (Mar 25, 4:00 pm)29.49 "Hg (Mar 15, 4:00 am)
Average34 °F64%30.08 "Hg
* Reported Mar 11 8:00 am — Mar 26 8:00 am, Toronto. Weather by CustomWeather, © 2019

Note: Actual official high and low records may vary slightly from our data, if they occured in-between our weather recording intervals... More about our weather records

Advertising

Toronto Weather History for the Previous 24 Hours

Scroll right to see more
 ConditionsComfort  
Time TempWeatherWind HumidityBarometerVisibility
8:00 am
Tue, Mar 26
27 °FSunny.12 mph54%30.42 "Hg15 mi
7:00 am25 °FClear.10 mph59%30.37 "Hg15 mi
6:00 am25 °FClear.8 mph59%30.34 "Hg15 mi
5:00 am25 °FClear.10 mph59%30.32 "Hg15 mi
4:00 am27 °FClear.13 mph54%30.31 "Hg15 mi
3:00 am27 °FClear.12 mph54%30.30 "Hg15 mi
2:00 am27 °FClear.9 mph54%30.30 "Hg15 mi
1:00 am27 °FClear.8 mph50%30.30 "Hg15 mi
12:00 am27 °FClear.9 mph46%30.29 "Hg15 mi
11:00 pm
Mon, Mar 25
28 °FClear.12 mph43%30.29 "Hg15 mi
10:00 pm30 °FClear.20 mph37%30.27 "Hg15 mi
9:00 pm30 °FClear.10 mph37%30.24 "Hg15 mi
8:00 pm32 °FClear.6 mph27%30.21 "Hg15 mi
7:00 pm36 °FSunny.8 mph23%30.20 "Hg15 mi
6:00 pm36 °FSunny.9 mph21%30.19 "Hg15 mi
5:00 pm37 °FSunny.10 mph18%30.19 "Hg15 mi
4:00 pm37 °FSunny.14 mph18%30.20 "Hg15 mi
3:00 pm37 °FSunny.15 mph20%30.22 "Hg15 mi
2:04 pm36 °FSunny.12 mph23%30.23 "Hg15 mi
1:00 pm36 °FSunny.5 mph25%30.25 "Hg15 mi
12:00 pm32 °FPassing clouds.8 mph27%30.27 "Hg15 mi
11:00 am30 °FPassing clouds.6 mph37%30.29 "Hg15 mi
10:00 am28 °FSunny.10 mph51%30.29 "Hg15 mi
9:00 am27 °FSunny.12 mph59%30.28 "Hg15 mi
8:00 am25 °FPassing clouds.13 mph69%30.26 "Hg15 mi
Weather by CustomWeather, © 2019

See weather overview